Weather in Santa Barbara

United States     34°25′49″N   119°42′07″W
temp.,
°C
wind,
m/s
gust,
m/s
humid.,
%
clouds,
%
prec.,
mm/h
press.,
hPa
HPBL,
m
25 may, wed
wed2523:00+17e11547 0.0 101023
02:00+15ese116011 0.0 101032
05:00+14e116010 0.1 101032
08:00+19s21508 0.0 1011159
11:00+25ssw31417 0.0 1011323
14:00+27ssw323721 0.1 1011433
17:00+23ssw31457 0.1 1011312
20:00+13sse118745 0.0 101214
26 may, thu
thu2623:00+13ese22889 0.1 101323
02:00+13ese228611 0.0 101236
05:00+12e22829 0.1 101334
08:00+17sse236726 0.0 1014230
11:00+22ssw325214 0.0 1014469
14:00+23ssw34466 0.0 1013546
17:00+20ssw325358 0.0 1013393
20:00+13se118999 0.0 101418
27 may, fri
fri2723:00+12ese23849 0.0 101552
02:00+11e117794 0.0 101546
05:00+10ese117579 0.0 101544
08:00+16ssw215613 0.0 1015225
11:00+21ssw3245100 0.0 1015553
14:00+21ssw4248100 0.1 1015604
17:00+20ssw325515 0.1 1014420
20:00+14n1180100 0.0 101418
28 may, sat
sat2823:00+14nne116887 0.0 101316
02:00+14n1155100 0.0 101213
05:00+13nne116193 0.0 101221
08:00+18sw21495 0.0 1012302
11:00+23ssw443778 0.0 1011784
14:00+25sw463215 0.0 10101118
17:00+24wnw78325 0.0 1008882
20:00+16nw57550 0.0 1009214
29 may, sun
sun2923:00+14n44625 0.0 100986
02:00+13nne43707 0.0 100860
05:00+12nne437770 0.0 100856
08:00+19n12495 0.0 1009569
11:00+25w48180 0.0 10071855
14:00+28nw811100 0.0 10052230
17:00+22wnw811210 0.0 10061258
20:00+13nnw58500 0.0 1007230